Zurück zum Katalog

STARLINK-32860

AktivKommunikationVLEO
NORAD 62856·PAYLOAD·🇺🇸 United States

Gestartet Feb 1, 2025 von Vandenberg Space Force Base

Loading…

Nächste Überflüge (nächste 24 Stunden)

TLE

AktuellSource: CelesTrak SupGP

Epoche: Sep 15, 2026, 03:26 UTC

1 62856C 25022C   26258.14354167  .00053574  00000+0  15826-2 0  2587
2 62856  53.1585 326.5073 0001258  96.5168 141.6962 15.34368261    12

Verfolge STARLINK-32860 in Echtzeit mit AllMySat

Download on the App Store